CAPE
0 0 0 0 0 0 0 0 0 0 0 0 0 0 0 7 71 26 1 17 0 0 0 0 0 0 0 0 0 4 281 591 806 778 652 357 82 0 0 0 0 0 0 0 0 0 0 0 0
0 0 0 0 0 0 0 0 0 0 0 0 0 0 0 89 60 0 78 3 0 0 0 0 0 0 0 0 0 0 84 519 744 842 697 403 78 21 0 0 0 0 0 0 0 0 0 0 0
0 0 0 0 0 0 0 0 0 0 0 0 0 0 0 110 29 0 183 0 0 0 0 0 0 0 0 0 0 0 5 141 495 604 480 189 46 1 0 0 0 0 0 0 0 0 0 0 0
0 0 0 0 0 0 0 0 0 0 15 48 0 0 57 78 12 8 407 3 0 0 0 0 0 0 0 0 0 0 0 0 77 194 198 95 33 0 0 0 0 0 0 0 0 0 0 0 11
0 0 0 0 0 0 0 0 0 0 0 94 3 0 72 71 33 228 347 24 0 0 0 0 0 0 0 0 0 0 0 0 0 5 35 26 18 0 0 0 0 0 0 0 0 0 15 26 61
0 0 0 0 0 0 0 0 0 0 0 0 1 0 15 42 39 67 246 98 0 0 0 0 0 0 0 0 0 0 0 0 0 0 0 0 0 0 0 0 0 0 0 0 0 9 21 36 101
0 0 0 0 0 0 0 0 0 0 0 0 0 0 39 10 16 40 115 138 0 8 0 0 0 0 0 0 0 0 0 0 0 0 0 0 0 0 0 0 0 0 0 0 0 16 32 55 120
0 0 0 0 0 0 0 0 0 0 0 0 0 0 20 17 0 16 53 47 208 246 143 1 0 0 0 0 0 0 0 0 0 0 0 0 0 0 0 0 0 0 0 0 2 28 133 144 151
0 0 0 0 0 0 0 0 0 0 0 0 0 2 156 83 3 0 21 28 363 465 313 253 2 0 0 0 0 0 0 0 0 0 0 0 0 0 0 0 0 0 0 0 13 70 182 232 258
0 0 0 0 0 0 0 0 0 0 0 0 0 0 38 138 1 0 3 28 204 495 533 345 202 5 0 0 0 0 0 0 0 0 0 0 0 0 0 0 0 0 0 0 32 142 261 339 388
0 0 0 0 0 0 0 0 0 0 0 0 0 0 43 71 190 87 0 2 49 357 481 535 430 134 0 0 0 0 0 0 0 0 0 0 0 0 0 0 0 0 0 0 24 156 401 412 477
0 0 0 0 0 0 0 0 0 0 0 0 0 0 0 0 89 195 106 2 4 101 302 753 575 294 44 0 12 16 6 0 0 0 0 0 0 0 0 0 0 0 0 0 0 5 99 298 365
0 0 0 0 0 0 0 0 0 0 0 0 0 0 0 0 27 123 151 85 27 88 152 737 899 583 250 197 232 217 197 140 92 83 27 1 0 0 0 0 0 0 0 0 0 0 25 80 121
0 0 0 0 0 0 0 0 0 0 0 0 0 0 0 0 0 13 1 14 44 26 135 500 532 842 596 510 389 464 416 370 343 323 329 208 74 75 3 0 0 6 0 8 12 12 34 112 238
0 0 0 0 0 0 0 0 0 0 0 0 0 0 0 0 0 0 1 0 22 0 89 0 19 11 469 914 916 866 824 658 750 703 665 477 246 180 107 64 11 16 11 20 62 65 35 174 335
0 0 0 0 0 0 0 0 0 0 0 0 0 0 0 1 0 0 0 0 0 1 0 42 152 155 415 1239 867 735 830 1257 1186 1028 1069 974 604 332 339 224 169 40 84 91 77 139 147 114 337
0 0 0 0 0 0 0 0 0 0 0 0 0 0 0 0 0 0 0 0 57 3 0 0 216 1498 1643 1571 1479 987 580 247 930 1403 1245 1247 1069 753 437 480 307 266 180 309 290 278 272 301 312
0 0 0 0 0 0 0 0 0 0 0 0 0 0 0 0 0 0 0 0 0 26 30 21 83 1126 1540 1644 1522 1122 955 900 933 913 1180 1232 1494 1237 821 641 806 662 530 458 494 400 352 362 532
0 0 0 0 0 0 0 0 0 0 0 0 0 0 0 0 0 0 0 0 2 77 108 163 97 291 631 590 713 937 958 1121 1294 1114 840 1013 1463 1526 1427 1151 943 950 972 767 636 648 485 447 370
0 0 0 0 0 0 0 0 0 0 0 0 0 0 0 0 0 0 0 2 0 24 56 49 10 36 123 72 14 0 0 10 39 14 158 592 1237 1628 1614 1489 1380 1362 1116 967 865 750 682 517 385
0 0 0 0 0 0 0 0 0 0 0 0 0 0 0 0 0 0 0 0 4 20 19 1 0 0 0 19 1 0 0 40 145 495 534 882 1441 1643 1762 1466 1261 1300 1318 1066 1009 904 736 571 340
0 0 0 0 0 0 0 0 0 0 0 0 0 0 0 0 0 0 0 0 0 63 11 0 0 0 0 0 0 0 0 0 0 58 586 1345 1601 1608 1587 1527 1438 1323 1403 1175 1124 1031 776 573 481
0 0 0 0 0 0 0 0 0 0 0 0 0 0 0 0 0 0 0 0 0 15 12 6 0 0 0 0 0 0 0 5 286 295 1135 1422 1513 1644 1613 1537 1394 1363 1494 1243 1122 1065 756 468 590
4 0 0 0 0 0 0 0 0 0 0 0 0 0 0 0 0 0 0 0 0 0 0 0 0 0 0 0 0 0 0 67 427 775 1514 1564 1521 1541 1576 1462 1293 1336 1549 1274 1277 1071 826 822 688
0 0 0 0 0 0 0 5 0 0 0 0 0 0 0 0 0 0 0 0 0 0 0 0 0 0 0 0 0 0 6 106 237 989 1828 1747 1642 1545 1455 1340 1232 1317 1521 1300 1356 1086 1060 830 693
0 0 1 0 0 0 0 0 0 0 0 0 0 0 0 0 0 0 0 0 0 0 0 0 0 0 0 0 2 159 289 343 391 1263 1731 1623 1583 1497 1341 1182 1226 1375 1488 1271 1125 1010 932 795 648
0 0 13 6 0 0 0 0 0 0 2 22 0 0 0 0 0 1 1 0 0 0 0 0 0 0 0 0 192 314 317 264 547 1789 1805 1654 1549 1485 1254 1116 1231 1483 1210 1146 908 854 712 583 395
10 8 0 2 4 0 0 0 12 42 23 3 0 0 0 0 0 35 1 0 0 8 81 123 80 1 0 11 297 715 924 792 1599 2008 1925 1651 1347 1174 1125 1158 1361 1365 1126 972 829 530 395 328 250
2 0 0 0 0 3 0 0 60 3 2 0 0 0 0 0 0 10 4 158 415 659 547 503 416 7 0 318 634 865 1406 1569 2411 2207 1854 1472 1279 1222 1308 1307 1482 1117 833 705 494 284 288 312 190
0 0 0 0 0 8 33 0 3 0 0 0 0 0 0 0 0 0 0 385 619 425 508 550 451 11 139 488 1330 1669 1698 2479 2394 2133 2088 1850 1477 1521 1416 1333 942 814 645 491 175 238 299 204 50
CIN
-0 -0 -0 -0 -0 -0 -0 -0 -0 -0 -0 -0 -0 -0 -0 -68 -59 -38 -37 -271 -0 -0 -0 -0 -0 -0 -0 -0 -0 -265 -363 -266 -222 -227 -230 -254 -295 -0 -0 -0 -0 -0 -0 -0 -0 -0 -0 -0 -0
-0 -0 -0 -0 -0 -0 -0 -0 -0 -0 -0 -0 -0 -0 -0 -90 -143 -0 -262 -25 -0 -0 -0 -0 -0 -0 -0 -0 -0 -0 -436 -317 -267 -244 -250 -279 -342 -380 -0 -0 -0 -0 -0 -0 -0 -0 -0 -0 -0
-0 -0 -0 -0 -0 -0 -0 -0 -0 -0 -0 -0 -0 -0 -0 -74 -113 -0 -280 -0 -0 -0 -0 -0 -0 -0 -0 -0 -0 -0 -127 -438 -331 -308 -308 -340 -383 -32 -0 -0 -0 -0 -0 -0 -0 -0 -0 -0 -0
-0 -0 -0 -0 -0 -0 -0 -0 -0 -0 -13 -34 -0 -1 -67 -93 -102 -98 -314 -34 -0 -0 -0 -0 -0 -0 -0 -0 -0 -0 -0 -0 -455 -427 -404 -397 -427 -0 -0 -0 -0 -0 -0 -0 -0 -0 -0 -0 -428
-0 -0 -0 -0 -0 -0 -0 -0 -0 -0 -0 -25 -20 -0 -41 -54 -134 -210 -317 -454 -0 -0 -0 -0 -0 -0 -0 -0 -0 -0 -0 -0 -0 -255 -485 -479 -417 -0 -0 -0 -0 -0 -0 -0 -0 -0 -481 -434 -376
-0 -0 -0 -0 -0 -0 -0 -0 -0 -0 -0 -0 -4 -0 -35 -112 -118 -234 -252 -348 -0 -0 -0 -0 -0 -0 -0 -0 -0 -0 -0 -0 -0 -0 -0 -0 -0 -0 -0 -0 -0 -0 -0 -0 -0 -444 -458 -428 -351
-0 -0 -0 -0 -0 -0 -0 -0 -0 -0 -0 -0 -0 -0 -67 -147 -161 -208 -238 -276 -0 -208 -0 -0 -0 -0 -0 -0 -0 -0 -0 -0 -0 -0 -0 -0 -0 -0 -0 -0 -0 -0 -0 -0 -0 -470 -445 -421 -361
-0 -0 -0 -0 -0 -0 -0 -0 -0 -0 -0 -0 -0 -0 -9 -74 -22 -230 -218 -301 -333 -412 -505 -30 -0 -0 -0 -0 -0 -0 -0 -0 -0 -0 -0 -0 -0 -0 -0 -0 -0 -0 -0 -0 -306 -475 -400 -388 -363
-0 -0 -0 -0 -0 -0 -0 -0 -0 -0 -0 -0 -0 -17 -43 -85 -36 -0 -222 -260 -249 -311 -389 -534 -153 -0 -0 -0 -0 -0 -0 -0 -0 -0 -0 -0 -0 -0 -0 -0 -0 -0 -0 -0 -500 -466 -390 -337 -319
-0 -0 -0 -0 -0 -0 -0 -0 -0 -0 -0 -0 -0 -15 -50 -54 -39 -0 -131 -181 -166 -232 -299 -401 -540 -174 -0 -0 -0 -0 -0 -0 -0 -0 -0 -0 -0 -0 -0 -0 -0 -0 -0 -0 -497 -423 -361 -320 -303
-0 -0 -0 -0 -0 -0 -0 -0 -0 -0 -0 -0 -0 -0 -37 -35 -24 -26 -0 -41 -122 -184 -224 -284 -377 -513 -0 -0 -0 -0 -0 -0 -0 -0 -0 -0 -0 -0 -0 -0 -0 -0 -0 -0 -343 -437 -318 -318 -291
-0 -0 -0 -0 -0 -0 -0 -0 -0 -0 -0 -0 -0 -0 -0 -0 -32 -26 -46 -17 -28 -98 -135 -241 -294 -349 -459 -71 -632 -609 -150 -0 -0 -0 -0 -0 -0 -0 -0 -0 -0 -0 -0 -0 -0 -620 -479 -368 -340
-0 -0 -0 -0 -0 -0 -0 -0 -0 -0 -0 -0 -0 -0 -0 -0 -34 -33 -63 -84 -136 -114 -156 -239 -332 -350 -331 -395 -481 -519 -514 -542 -594 -653 -728 -250 -0 -0 -0 -0 -0 -0 -0 -0 -0 -0 -563 -492 -454
-0 -0 -0 -0 -0 -0 -0 -0 -0 -0 -0 -0 -0 -0 -0 -0 -0 -50 -33 -125 -112 -90 -135 -144 -163 -244 -288 -277 -317 -378 -456 -451 -492 -528 -572 -635 -688 -715 -492 -0 -0 -526 -0 -338 -359 -547 -516 -466 -378
-0 -0 -0 -0 -0 -0 -0 -0 -0 -0 -0 -0 -0 -0 -0 -0 -0 -0 -35 -9 -129 -6 -68 -0 -118 -120 -184 -244 -199 -272 -326 -375 -384 -412 -438 -497 -595 -625 -613 -617 -597 -551 -558 -526 -505 -457 -458 -399 -323
-0 -0 -0 -0 -0 -0 -0 -0 -0 -0 -0 -0 -0 -0 -28 -135 -0 -0 -0 -0 -21 -34 -0 -157 -114 -133 -165 -141 -154 -196 -221 -231 -246 -277 -273 -328 -446 -547 -510 -521 -505 -523 -429 -411 -405 -383 -346 -340 -269
-0 -0 -0 -0 -0 -0 -0 -0 -0 -0 -0 -0 -0 -0 -0 -20 -0 -0 -0 -0 -86 -82 -0 -0 -122 -87 -107 -143 -191 -254 -296 -327 -248 -200 -199 -185 -271 -384 -431 -429 -431 -390 -374 -323 -287 -262 -245 -223 -201
-0 -0 -0 -0 -0 -0 -0 -0 -0 -0 -0 -0 -0 -0 -0 -0 -0 -0 -0 -0 -0 -121 -159 -151 -178 -153 -161 -160 -211 -266 -303 -292 -256 -225 -205 -219 -208 -261 -338 -376 -307 -276 -301 -283 -230 -201 -167 -152 -101
-0 -0 -0 -0 -0 -0 -0 -0 -0 -0 -0 -0 -0 -0 -0 -0 -0 -0 -0 -0 -111 -116 -102 -140 -204 -225 -228 -233 -191 -227 -240 -275 -246 -262 -237 -216 -202 -203 -243 -296 -271 -219 -203 -212 -189 -144 -157 -149 -137
-0 -0 -0 -0 -0 -0 -0 -0 -0 -0 -0 -0 -0 -0 -0 -0 -0 -0 -90 -128 -0 -101 -105 -126 -136 -210 -277 -287 -301 -0 -0 -282 -384 -382 -318 -281 -227 -203 -212 -225 -198 -183 -182 -174 -143 -126 -126 -137 -148
-0 -0 -0 -0 -0 -0 -0 -0 -0 -0 -0 -0 -0 -0 -0 -0 -0 -0 -0 -0 -155 -136 -120 -61 -0 -0 -0 -362 -160 -0 -0 -360 -338 -292 -279 -269 -201 -195 -199 -212 -203 -186 -153 -159 -120 -99 -105 -122 -147
-0 -0 -0 -0 -0 -0 -0 -0 -0 -0 -0 -0 -0 -0 -0 -0 -0 -0 -0 -0 -0 -92 -133 -0 -0 -0 -0 -0 -0 -0 -0 -0 -0 -287 -180 -171 -170 -180 -182 -194 -189 -180 -137 -128 -92 -80 -96 -125 -101
-0 -0 -0 -0 -0 -0 -0 -0 -0 -0 -0 -0 -0 -0 -0 -0 -0 -0 -0 -0 -14 -75 -105 -149 -0 -0 -0 -0 -0 -0 -0 -72 -332 -302 -128 -127 -155 -166 -175 -189 -179 -153 -116 -107 -77 -63 -95 -129 -45
-46 -0 -0 -0 -0 -0 -0 -0 -0 -0 -0 -0 -0 -0 -0 -0 -0 -0 -0 -0 -0 -0 -0 -0 -0 -0 -0 -0 -84 -0 -0 -346 -287 -212 -127 -137 -172 -175 -170 -181 -170 -125 -70 -80 -41 -45 -68 -44 -14
-0 -0 -0 -0 -0 -0 -0 -5 -0 -0 -0 -0 -0 -0 -0 -0 -0 -0 -0 -0 -0 -0 -0 -0 -0 -0 -0 -0 -0 -0 -181 -306 -273 -132 -77 -136 -168 -172 -182 -172 -158 -102 -41 -36 -23 -24 -17 -28 -25
-0 -0 -18 -8 -0 -0 -0 -0 -0 -0 -0 -0 -0 -0 -0 -0 -0 -0 -0 -0 -0 -0 -0 -0 -0 -0 -0 -0 -114 -311 -266 -232 -220 -102 -99 -164 -161 -176 -169 -164 -127 -68 -21 -29 -22 -19 -21 -26 -33
-0 -0 -34 -16 -0 -5 -0 -0 -0 -0 -10 -114 -0 -0 -0 -0 -0 -7 -11 -0 -0 -0 -0 -0 -0 -0 -0 -4 -303 -255 -246 -247 -173 -57 -125 -138 -154 -153 -158 -147 -102 -24 -26 -28 -21 -21 -26 -36 -40
-23 -57 -0 -18 -7 -0 -0 -0 -31 -84 -117 -219 -0 -0 -0 -0 -7 -14 -9 -0 -0 -29 -37 -119 -196 -71 -0 -151 -247 -177 -141 -130 -64 -62 -96 -114 -159 -163 -138 -108 -44 -17 -24 -16 -25 -36 -46 -46 -50
-12 -16 -11 -9 -0 -2 -0 -0 -52 -33 -61 -0 -0 -0 -0 -0 -0 -30 -18 -60 -53 -55 -40 -54 -101 -141 -0 -222 -172 -143 -66 -36 -18 -40 -76 -122 -140 -122 -90 -52 -15 -14 -18 -26 -34 -55 -41 -32 -54
-0 -0 -0 -1 -2 -28 -7 -0 -113 -0 -0 -0 -0 -0 -0 -0 -0 -0 -0 -35 -56 -38 -46 -44 -87 -121 -227 -180 -51 -23 -17 -7 -17 -23 -45 -65 -89 -48 -39 -20 -29 -25 -22 -29 -70 -50 -24 -40 -104
Wind_Speed
23 22 21 19 21 21 27 27 33 31 31 27 15 15 14 12 10 14 11 12 22 23 24 24 25 25 25 22 22 22 22 22 22 23 23 23 22 22 22 22 21 22 22 22 22 21 21 21 21
21 20 19 20 23 26 27 34 32 29 28 16 16 17 19 15 10 5 8 13 23 21 22 22 23 24 24 24 22 21 21 21 20 21 20 20 20 20 20 19 19 19 19 20 20 20 20 20 19
20 17 20 21 25 29 24 29 29 32 39 16 15 16 21 11 3 5 6 14 18 17 20 21 22 22 22 23 22 21 20 20 19 19 18 18 18 17 17 17 17 17 17 18 18 18 18 18 18
18 19 23 28 35 36 40 34 33 34 27 9 15 19 13 3 2 2 11 15 16 14 16 19 19 20 21 21 21 20 18 18 19 17 16 16 15 15 15 14 14 14 14 15 15 15 16 16 17
19 22 29 31 36 37 37 34 32 31 29 12 18 18 9 2 3 10 13 13 15 14 13 16 17 18 19 20 20 19 17 17 16 15 15 13 13 13 12 12 12 12 12 12 12 12 13 14 14
25 25 29 34 36 38 39 34 30 30 28 20 13 18 15 3 7 8 8 10 13 14 13 13 14 15 16 18 18 18 16 14 14 14 12 12 11 10 10 9 9 9 9 9 9 9 11 12 12
29 30 36 34 38 38 36 33 32 30 28 22 19 20 9 3 5 7 8 9 10 10 11 10 10 12 14 15 16 15 14 12 12 12 10 10 9 8 7 7 7 6 6 6 6 7 7 9 10
26 31 41 41 39 42 38 36 32 30 32 28 21 20 16 11 6 6 7 8 10 9 9 9 10 10 11 13 14 13 12 11 11 10 9 8 7 6 5 5 4 4 3 3 3 4 4 6 7
32 34 45 41 41 39 36 38 34 32 32 31 25 16 17 8 7 6 6 8 8 8 8 8 9 9 9 10 11 11 10 9 9 10 9 7 5 4 4 3 2 2 1 1 0 2 1 2 4
26 34 34 40 40 41 39 37 38 34 30 30 28 17 14 5 4 7 7 9 11 10 9 9 8 8 7 6 8 8 8 6 6 4 4 5 5 2 2 2 3 3 3 3 3 2 2 1 4
33 37 41 46 44 44 46 44 39 37 37 34 32 26 17 15 13 13 11 11 16 13 10 11 9 8 8 5 7 6 6 4 3 3 2 4 4 4 3 2 3 4 5 5 5 4 3 3 4
38 41 39 46 49 50 52 47 46 42 41 39 38 34 31 29 21 21 15 16 16 16 14 12 11 9 8 5 8 5 6 4 3 4 3 3 4 5 5 5 5 5 5 6 6 5 5 5 5
42 45 45 46 45 48 50 53 50 49 43 43 39 38 35 33 27 20 24 18 13 10 13 13 8 7 7 7 6 5 5 3 3 3 4 4 4 5 5 6 6 6 6 6 6 5 5 6 5
36 41 44 44 44 44 45 52 49 53 44 47 44 39 33 32 32 23 23 22 15 12 8 13 11 9 6 7 6 5 5 5 5 5 5 5 5 5 6 7 7 7 5 5 5 5 5 5 4
36 41 44 44 43 45 38 50 53 52 46 45 50 48 43 35 34 36 38 26 22 17 22 18 18 18 18 12 9 7 6 7 8 7 6 6 6 7 8 8 7 8 6 5 4 5 5 5 4
35 38 43 33 37 43 38 59 54 42 46 52 46 51 53 43 39 37 34 32 31 20 15 14 15 13 13 13 11 10 9 10 10 10 8 9 9 9 9 10 8 7 7 6 6 5 6 6 6
28 39 43 48 39 40 35 52 55 48 46 48 52 50 51 54 41 40 37 39 29 25 19 20 16 16 15 14 14 12 12 11 11 11 12 12 12 11 11 11 9 7 7 6 6 6 6 6 6
33 35 37 41 34 33 39 49 49 46 47 49 48 44 46 52 53 44 41 39 37 32 25 21 18 16 16 15 17 19 18 15 14 13 14 15 14 13 12 12 9 8 8 6 6 7 6 8 5
38 42 43 44 38 42 42 47 51 45 45 45 50 49 49 47 53 52 47 42 39 33 30 26 25 23 20 21 22 24 22 21 18 17 18 17 17 14 13 11 9 9 8 6 5 6 5 7 7
38 42 45 44 41 43 44 52 52 50 49 47 46 47 45 44 42 41 45 45 41 35 30 29 27 25 24 22 24 25 25 24 23 24 22 19 15 13 13 10 10 9 7 6 4 5 7 6 5
41 43 45 48 43 44 46 53 57 55 50 50 49 46 43 45 43 43 44 46 45 39 34 31 28 27 27 24 25 25 27 28 27 27 24 16 12 12 9 8 8 7 5 4 4 5 5 5 6
41 36 42 45 45 50 35 62 49 52 57 49 50 48 47 44 38 42 43 45 41 35 27 28 28 28 25 25 27 26 28 29 26 27 22 14 12 9 7 7 6 6 3 3 4 4 4 6 6
42 38 44 44 46 49 47 54 57 44 54 53 51 50 49 47 42 39 41 37 33 26 25 26 25 24 24 26 26 27 28 27 27 25 18 13 11 8 6 6 5 4 2 3 3 2 2 5 8
40 40 40 41 43 54 51 49 64 56 57 57 56 52 50 49 42 39 38 40 34 29 27 26 25 26 24 26 28 25 26 26 26 22 15 11 10 7 6 6 3 2 3 4 1 0 3 7 4
32 38 39 39 38 46 41 44 53 53 50 52 53 53 52 48 48 49 41 38 39 37 35 32 31 31 28 25 25 28 29 25 21 17 11 9 7 7 7 3 3 2 2 4 1 2 4 5 5
32 31 34 40 47 51 45 45 47 39 45 46 45 49 49 48 47 43 39 42 43 43 42 42 38 36 30 24 22 22 20 18 16 12 10 9 6 6 4 3 2 1 0 3 3 4 6 5 5
36 30 30 38 45 44 44 42 41 43 33 33 39 41 40 42 45 39 23 25 27 32 31 28 29 26 24 21 21 21 17 16 15 11 9 8 6 6 3 2 2 2 1 2 3 5 5 5 5
24 31 35 30 32 33 29 33 32 32 36 37 36 39 39 38 37 21 21 21 21 23 25 25 28 24 22 20 18 17 15 15 12 10 9 7 4 2 3 4 4 3 3 3 4 5 5 4 5
26 31 28 30 25 29 35 22 21 29 32 38 39 39 36 35 33 24 23 21 22 24 28 28 30 24 19 16 15 14 13 12 10 9 8 5 3 3 4 6 4 4 4 3 4 4 5 5 5
22 27 21 21 31 25 34 39 24 31 33 38 40 39 34 30 27 26 25 23 27 31 34 34 29 19 16 14 12 11 10 9 10 8 6 4 4 5 6 5 4 3 3 3 4 4 4 5 5
Wind_Direction
286 280 281 286 271 269 260 255 226 241 256 270 306 305 305 318 318 313 81 116 126 121 116 115 111 111 109 103 96 94 92 94 93 90 89 88 86 86 84 82 78 75 73 70 65 62 57 52 49
293 280 283 276 267 261 261 224 231 227 244 303 293 294 289 304 323 77 85 114 130 124 118 115 114 113 112 111 105 99 99 98 94 93 91 93 89 88 85 82 80 77 76 72 69 67 63 58 53
294 282 273 269 264 256 262 248 260 264 276 288 297 302 283 300 350 131 111 125 129 124 119 118 115 114 114 115 112 108 106 103 101 100 97 98 93 91 89 86 85 81 81 75 74 71 63 59 56
292 279 272 263 257 250 234 252 266 276 277 319 287 288 314 348 127 152 133 127 133 132 123 122 117 116 117 119 117 115 109 108 110 108 106 100 99 96 95 90 90 85 83 79 79 74 64 61 57
294 274 263 263 259 253 247 259 271 289 302 297 277 276 289 302 82 129 133 133 139 138 129 125 121 119 120 122 123 121 117 116 114 116 116 107 105 104 102 96 96 92 86 82 81 78 67 62 57
271 271 264 263 261 255 252 263 281 284 294 286 285 275 280 215 135 156 148 151 151 148 140 132 128 125 125 126 128 128 123 121 121 122 119 117 114 114 108 102 102 98 92 87 86 78 65 59 54
267 266 262 266 262 261 256 264 276 282 287 289 282 286 299 189 164 156 163 163 163 159 152 145 137 129 130 131 132 130 129 124 129 128 127 129 128 124 121 107 107 103 100 96 90 74 65 56 48
273 270 262 261 263 258 259 267 276 283 277 279 286 299 305 271 182 184 183 178 174 179 169 163 152 141 137 137 139 135 133 132 135 137 136 141 138 134 135 125 116 118 113 104 90 57 67 52 44
267 266 257 259 259 261 267 268 272 283 278 277 277 310 307 284 182 191 200 223 205 206 193 184 168 163 152 143 140 136 135 135 142 150 152 153 147 141 154 156 161 170 168 179 190 21 44 38 29
260 264 235 261 263 264 269 271 270 283 280 274 273 300 307 353 243 207 208 214 191 212 206 193 188 184 176 162 150 146 142 142 149 151 150 166 176 169 197 216 234 234 241 263 279 294 265 318 1
264 262 268 262 265 267 268 270 274 276 272 268 268 287 287 281 264 268 242 245 213 195 192 191 197 194 193 191 167 165 166 170 185 204 201 198 205 220 238 289 283 265 264 284 289 289 271 284 330
267 268 268 266 264 265 265 273 272 272 272 269 267 277 281 289 265 266 257 258 218 223 223 215 206 201 209 198 171 177 173 179 208 234 238 236 233 234 249 288 291 291 293 279 288 283 265 264 297
267 267 268 267 269 267 268 264 268 269 272 271 271 270 275 286 271 264 271 278 279 251 223 224 217 199 229 181 182 200 202 228 242 280 251 242 240 248 269 284 296 302 292 286 279 277 269 261 272
280 275 273 272 270 270 270 267 269 262 269 266 266 270 275 279 280 267 268 265 276 256 231 207 210 211 211 188 231 224 249 256 281 280 286 243 250 273 291 298 294 304 292 291 271 273 274 273 274
285 277 275 273 273 273 279 270 263 264 269 270 260 262 265 272 278 275 263 261 272 265 262 252 261 247 247 241 243 260 260 281 289 289 295 262 259 285 297 303 291 307 297 288 280 270 284 297 288
286 280 274 283 279 277 276 265 263 273 269 266 269 261 261 264 269 276 263 265 251 259 261 257 269 257 243 234 230 251 270 289 282 290 291 281 273 283 294 299 289 290 309 287 299 276 279 295 294
289 279 279 276 283 282 278 268 263 268 269 269 266 267 259 260 266 267 271 266 260 251 246 251 242 234 239 247 258 271 287 287 273 285 290 284 282 283 287 296 291 288 286 281 294 296 289 293 295
289 284 284 280 289 288 279 272 272 272 269 268 269 267 264 257 259 265 267 269 267 260 257 253 244 242 243 255 271 285 292 295 293 287 287 294 294 287 285 291 290 290 297 271 284 293 296 324 319
290 286 284 284 292 289 284 279 275 279 277 275 266 266 266 265 259 260 264 265 269 263 257 252 255 260 258 267 274 281 284 292 290 289 292 294 294 285 287 289 276 290 298 279 278 307 290 308 326
295 289 286 287 293 288 285 278 277 276 276 276 277 271 266 266 266 261 260 263 264 262 255 251 251 255 259 265 273 280 287 291 294 296 294 291 289 287 285 269 288 294 284 295 291 302 323 321 327
294 292 291 288 292 286 286 279 275 274 277 274 273 275 277 266 263 262 264 261 265 264 253 251 251 253 259 264 274 279 285 290 294 300 302 291 286 295 283 272 278 288 286 285 300 309 309 313 327
297 305 298 294 290 282 290 277 279 278 273 275 273 275 273 273 277 262 262 259 261 265 251 247 250 254 258 264 270 274 279 282 287 298 299 288 289 287 281 279 288 301 275 285 308 325 323 338 323
301 308 296 295 291 289 283 280 277 283 275 274 275 273 274 274 272 271 260 262 255 260 256 255 257 259 261 264 268 273 280 283 288 295 286 285 288 285 280 289 286 297 302 308 314 334 337 324 335
307 307 300 295 290 280 283 284 276 277 276 276 274 274 272 275 273 269 267 261 255 253 254 258 258 261 262 264 265 269 276 282 285 289 282 273 282 279 289 294 290 264 313 324 288 309 354 349 349
318 311 298 291 291 285 296 287 284 280 280 278 275 274 269 273 275 271 261 261 259 255 259 263 265 265 266 261 257 265 272 275 276 276 265 271 268 281 290 288 289 241 316 345 44 19 11 6 4
310 313 296 291 291 291 295 287 285 290 287 285 284 279 273 271 273 276 268 260 257 259 263 266 268 271 270 259 250 258 256 265 268 257 254 256 253 275 268 278 249 243 7 360 29 25 11 8 1
302 296 306 296 297 295 297 295 291 290 291 300 291 289 282 277 273 275 272 261 256 258 261 262 263 265 265 263 264 256 248 254 255 248 248 236 261 282 266 206 178 152 71 57 38 12 9 9 8
311 296 300 302 300 300 309 306 303 308 298 297 299 294 283 282 272 265 266 265 262 262 267 272 273 268 264 262 260 253 250 250 245 227 225 227 260 254 163 156 147 125 99 83 24 19 24 36 32
318 293 312 297 307 300 298 327 334 326 308 296 291 289 283 278 270 260 264 271 265 270 269 272 273 269 260 257 257 254 249 242 215 204 205 207 196 146 136 137 122 109 89 39 27 43 55 66 47
318 302 324 315 286 309 301 289 326 319 311 302 288 280 270 273 261 267 269 271 271 271 267 267 267 257 252 251 250 249 236 207 197 197 197 184 147 131 122 113 100 82 58 37 51 77 70 98 58